COSMOS 2251 DEB, 35759

Orbit data source: Space-Track

COSMOS 2251 DEB, 35759 is space debris in LEO originally from a launch on Wed, 16 Jun 1993 UTC launched from the Plesetsk Missile And Space Complex (PKMTR). The debris from Iridium 33, an American commercial communications satellite, has been tracked extensively since its accidental collision with the defunct Russian satellite Cosmos 2251 in 2009. This event, occurring at high speed in low Earth orbit (LEO), generated thousands of pieces of space debris, significantly increasing the risk of further collisions. The Iridium 33 debris cloud has impacted space traffic management and orbital debris mitigation strategies, making it a subject of ongoing study in space situational awareness.

Loading next visibility...
Identifier
35759, 1993-036ARD
Orbit
LEO
Country
Flag of CISCIS
Related business
Manufacturer
Unknown
Mission
Spacecraft
Bus & Motor
Unknown
Mass
Unknown
Launch date (UTC)
1993-06-16 (33 years ago)
Launch vehicle
Unknown
Launch site
Plesetsk Missile And Space Complex (PKMTR)
Object type
Payload
Rocket body
Debris
Shape & HBR
Unknown shape, 0.1 m
Radar Cross Section
Small (<0.1 m²)

Expand to show TLE details & history
Last TLE update: 5 days ago

TLE from 5 days ago
0 COSMOS 2251 DEB
1 35759U 93036ARD 26101.95981838  .00000992  00000-0  18207-3 0  9992
2 35759  74.0398 344.7617 0074996  73.2112 287.7266 14.65355471678960
Epoch: 2026-04-11T23:02Z
TLE epoch observation values (Epoch: 2026-04-11T23:02:08.308Z)
Latitude
-0.00006°
Longitude
159.05543°
Altitude
662.832 km
Speed
7.534 km/s
True Right ascension
22h 59m 02s
True Declination
0° 00' 00"
Sunlit
Object was in daylight at epoch
Visualization orbit readout
Latitude
Unknown
Longitude
Unknown
Altitude
Unknown
Speed
Unknown
Apparent Right ascension
Unknown
Apparent Declination
Unknown
Sunlit
N/A
Visualization observer readout
Local Sidereal Time
17:05:00
Azimuth
Unknown
Elevation
Unknown
Doppler factor
Unknown
Orbital elements
Apogee altitude
726.41 km
Perigee altitude
620.641 km
Semi-major axis
7,051.662 km
Eccentricity
0.0075
Inclination
74.0398°
RAAN
344.7617°
Arg. of periapsis
73.2112°
True anomaly
286.9057°
Mean anomaly
287.7266°
Eccentric anomaly
287.31638°
Mean motion
3.66527 °/min
Orbital period
98.22 mins
BSTAR
0.00018207

Documentation

Showing up to 5 results
|